Regional Weather Roundup
Issued by NWS

Home | Current Version | Previous Version | Graphics & Text | Print | Product List | Glossary On
Versions: 1 2 3 4 5 6 7 8 9 10 11 12 13 14 15 16 17 18 19 20 21 22 23 24 25 26 27 28 29 30 31 32 33 34 35 36 37 38 39 40 41 42 43 44 45 46 47 48 49 50
000
ASUS44 KMEG 312300
RWRTN
TENNESSEE HOURLY STATE WEATHER ROUNDUP
NATIONAL WEATHER SERVICE MEMPHIS TN
500 PM CST SAT JAN 31 2015

TNZ002-004-019-021-049-052-054-088>092-010000-
WEST TENNESSEE

CITY           SKY/WX    TMP DP  RH WIND       PRES   REMARKS
MEMPHIS INTL   CLOUDY    46  25  43 E8        30.20F
NWS MEMPHIS      N/A     45 N/A N/A MISG        N/A
JACKSON        CLOUDY    45  23  42 E6        30.23F
DYERSBURG      CLOUDY    45  19  36 E5        30.25S
UNION CITY     CLEAR     41  25  52 CALM      30.23F
PARIS          CLEAR     41  23  48 CALM      30.25S
LEXINGTON        N/A     45  25  45 CALM      30.23F
SAVANNAH       CLEAR     46  21  36 CALM      30.24F
$$

TNZ008-025-027-028-033-062-065-066-010000-
NORTH MIDDLE TENNESSEE

CITY           SKY/WX    TMP DP  RH WIND       PRES   REMARKS
NASHVILLE      CLOUDY    45  14  28 E6        30.27F
CLARKSVILLE    CLOUDY    45  21  38 SE3       30.26S
COOKEVILLE     PTCLDY    43  19  39 CALM      30.27F
CROSSVILLE     CLOUDY    43  11  27 CALM      30.26F
$$

TNZ061-075-076-078-094-096-097-010000-
SOUTH MIDDLE TENNESSEE

CITY           SKY/WX    TMP DP  RH WIND       PRES   REMARKS
FAYETTEVILLE   CLEAR     45  18  33 MISG      30.25F
TULLAHOMA      PTCLDY    45   9  23 CALM      30.27F
WINCHESTER     CLEAR     45  27  49 CALM      30.27S
COLUMBIA       CLEAR     45  19  36 CALM      30.25R
SHELBYVILLE    MOCLDY    45  25  45 CALM      30.28F
$$

TNZ017-018-042-046-047-010000-
NORTHEAST TENNESSEE

CITY           SKY/WX    TMP DP  RH WIND       PRES   REMARKS
TRI CITIES     MOCLDY    42  11  28 CALM      30.28F
ELIZABETHTON   CLEAR     36  18  48 CALM      30.28S
$$

TNZ012-013-036-069-073-074-010000-
CENTRAL EAST TENNESSEE

CITY           SKY/WX    TMP DP  RH WIND       PRES   REMARKS
KNOXVILLE      CLOUDY    43  15  32 SW3       30.30S
OAK RIDGE      CLOUDY    45  11  25 CALM      30.31S
GATLINBURG     CLEAR     43  10  26 CALM      30.29S
$$

TNZ083-085-099-010000-
SOUTHEAST TENNESSEE

CITY           SKY/WX    TMP DP  RH WIND       PRES   REMARKS
CHATTANOOGA    CLOUDY    46  20  35 N5        30.30S
$$

SKY/WX REPORTED AS FAIR MEANS FEW OR NO CLOUDS BELOW
12 THOUSAND FEET.




USA.gov is the U.S. government's official web portal to all federal, state and local government web resources and services.